Regional Weather Roundup
Issued by NWS

Home | Current Version | Previous Version | Graphics & Text | Print | Product List | Glossary On
Versions: 1 2 3 4 5 6 7 8 9 10 11 12 13 14 15 16 17 18 19 20 21 22 23 24 25 26 27 28 29 30 31 32 33 34 35 36 37 38 39 40 41 42 43 44 45 46 47 48 49 50
000
ASUS43 KMPX 281010
RWRMN
WEATHER ROUNDUP FOR MINNESOTA
NATIONAL WEATHER SERVICE TWIN CITIES/CHANHASSEN MN
500 AM CDT FRI APR 28 2017


NOTE: "FAIR" INDICATES FEW OR NO CLOUDS BELOW 12,000 FEET WITH NO
SIGNIFICANT WEATHER AND/OR OBSTRUCTIONS TO VISIBILITY. N/A MEANS
CURRENT SKY AND/OR WEATHER CONDITIONS ARE NOT AVAILABLE.

MNZ060>063-068>070-281100-
   Twin Cities Metro

CITY           SKY/WX    TMP DP  RH WIND       PRES   REMARKS
TWIN CITIES    CLOUDY    36  27  69 SW5       29.84S
ST PAUL        CLOUDY    36  29  75 SW3       29.85R
LAKEVILLE      CLOUDY    34  28  80 SW5       29.84S WCI  30
EDEN PRAIRIE   CLOUDY    36  29  75 W8        29.83S
SOUTH ST PAUL  CLOUDY    36  29  74 SW3       29.84R
LAKE ELMO      CLOUDY    36  30  80 W7        29.84S
$$
MNZ001>005-007-008-013>017-022>024-027-028-281100-
   Northwest Minnesota

CITY           SKY/WX    TMP DP  RH WIND       PRES   REMARKS
BEMIDJI        MOCLDY    26  24  93 W12       29.80R WCI  15
HALLOCK        PTCLDY    32  27  80 NW5       29.88R WCI  27
ROSEAU         CLEAR     28  23  80 NW8       29.83R WCI  20
WARROAD        PTCLDY    28  25  86 NW10      29.82R WCI  19
THIEF RVR FALL CLOUDY    30  26  85 NW6       29.87  WCI  24
CROOKSTON      PTCLDY    32  28  86 N10       29.90R WCI  24
FOSSTON        CLOUDY    28  27  93 NW7       29.85R WCI  21
DETROIT LAKES  PTCLDY    30  28  93 W9        29.87R WCI  22
MOORHEAD       CLEAR     28  27  93 W6        29.90R WCI  22
PARK RAPIDS    MOCLDY    29  22  75 NW9       29.82R WCI  20
MAHNOMEN       CLOUDY    29  27  92 NW5       29.85R WCI  24
$$
MNZ006-009>011-018-025>026-281100-
   North Central Minnesota

CITY           SKY/WX    TMP DP  RH WIND       PRES   REMARKS
BAUDETTE       FLURRIES  30  25  81 NW14      29.76R WCI  19
FLAG ISLAND    CLOUDY    30  27  86 NW15      29.78R WCI  19
INTL FALLS     LGT SNOW  27  24  89 W9        29.72R FOG     WCI  18
WASKISH        CLOUDY    28  27  93 NW13      29.79R WCI  18
BIG FORK       CLOUDY    27  21  80 NW5       29.75R WCI  21
LONGVILLE      CLOUDY    30  25  80 NW6       29.79R WCI  24
GRAND RAPIDS   CLOUDY    28  24  85 NW14      29.78R WCI  17
CRANE LAKE     LGT SNOW  25  23  93 W3        29.71R
ORR            CLOUDY    27  21  80 W9        29.68R WCI  17
COOK           CLOUDY    27  21  80 W10       29.71R WCI  17
WALKER         CLOUDY    27  23  85 W10       29.81R WCI  17
$$
MNZ012-019>021-037-281100-
   Northeast Minnesota

CITY           SKY/WX    TMP DP  RH WIND       PRES   REMARKS
DULUTH         FLURRIES  28  24  85 W13       29.72R WCI  17
ELY            CLOUDY    27  21  80 W10G16    29.66R WCI  17
HIBBING        CLOUDY    26  21  81 NW12      29.72R WCI  16
EVELETH        MIX PCPN  28  22  78 W8G16     29.72R WCI  19
DULUTH HARBOR  CLOUDY    32  27  80 W15       29.77R WCI  22
TWO HARBORS    CLOUDY    30  25  80 W7        29.70R WCI  23
SILVER BAY     CLOUDY    28  25  86 W5        29.68R WCI  23
GRAND MARAIS     N/A     29  25  85 W6        29.66R WCI  23
G MARAIS ARPRT CLOUDY    21  18  86 CALM      29.60R
$$
MNZ029>031-032-039>041-046>048-054>057-064-281100-
   West Central Minnesota

CITY           SKY/WX    TMP DP  RH WIND       PRES   REMARKS
FERGUS FALLS   CLEAR     28  28 100 N9        29.88S WCI  20
WHEATON        CLEAR     28  25  86 NW5       29.91R WCI  23
MORRIS         CLEAR     30  28  93 NW10      29.86R WCI  21
ALEXANDRIA     CLEAR     31  27  85 NW9       29.84R WCI  23
ELBOW LAKE     FAIR      31  29  92 W12G17    29.88R WCI  21
WADENA         CLEAR     27  25  93 W9        29.85R WCI  17
GLENWOOD       CLEAR     30  28  93 W7        29.85R WCI  23
APPLETON       CLEAR     34  28  80 NW8       29.87R WCI  27
BENSON         CLEAR     28  23  80 N7        29.87R WCI  21
ORTONVILLE     CLEAR     32  27  80 NW8       29.88R WCI  25
MADISON        CLEAR     34  30  86 NW8       29.88R WCI  27
WILLMAR        FAIR      34  30  86 W5        29.87R WCI  30
$$
MNZ033>034-036-042>043-049>051-058-059-281100-
   Central Minnesota

CITY           SKY/WX    TMP DP  RH WIND       PRES   REMARKS
ST CLOUD       MOCLDY    33  25  72 NW10      29.83R WCI  25
SAUK CENTRE    FAIR      31  26  83 NW7       29.84R WCI  24
PAYNESVILLE    MOCLDY    34  30  85 NW7       29.84S WCI  27
AITKIN         CLOUDY    32  21  64 W3        29.79R
PINE RIVER     CLOUDY    28  23  80 W7        29.85R WCI  21
BRAINERD       MOCLDY    29  22  75 NW9       29.82R WCI  20
STAPLES        CLEAR     25  21  86 W6        29.84R WCI  18
LONG PRAIRIE   FAIR      30  27  86 W8        29.84S WCI  23
LITTLE FALLS   CLEAR     30  25  80 NW6       29.84R WCI  24
LITCHFIELD     CLEAR     36  32  87 W6        29.84R
BUFFALO        CLOUDY    37  30  76 W7        29.85R
MAPLE LAKE     CLOUDY    37  32  84 NW5       29.85R
HUTCHINSON     CLEAR     33  31  94 W5        29.86R WCI  28
$$
MNZ037-044-045-052-053-281100-
   East Central Minnesota

CITY           SKY/WX    TMP DP  RH WIND       PRES   REMARKS
PRINCETON      CLOUDY    34  25  69 NW12      29.84R WCI  25
MORA           CLOUDY    32  25  74 W9        29.83R WCI  24
CAMBRIDGE      CLOUDY    36  23  60 W9G17     29.82R
RUSH CITY      CLOUDY    32  25  74 W10G16    29.83R WCI  24
MOOSE LAKE     CLOUDY    30  27  86 W6        29.77R WCI  24
HINCKLEY       CLOUDY    32  28  86 W7        29.80R WCI  26
CLOQUET        CLOUDY    28  21  74 W9        29.75R WCI  20
MCGREGOR       CLOUDY    30  27  86 W6        29.79R WCI  24
$$
MNZ071>073-080-081-089-090-097-098-281100-
   Southwest Minnesota

CITY           SKY/WX    TMP DP  RH WIND       PRES   REMARKS
MONTEVIDEO     CLEAR     30  28  93 NW5       29.87R WCI  25
GRANITE FALLS  CLEAR     31  29  92 W7        29.88S WCI  25
CANBY          CLEAR     32  29  90 W6        29.89R WCI  27
MARSHALL       PTCLDY    29  27  92 NW9       29.87R WCI  20
REDWOOD FALLS  CLEAR     34  27  75 W9        29.86R WCI  27
OLIVIA         CLEAR     34  32  93 NW7       29.85R WCI  28
PIPESTONE      CLEAR     28  25  86 CALM      29.85R
WINDOM         CLEAR     27  27 100 CALM      29.86R
WORTHINGTON    CLEAR     26  24  92 CALM      29.86R
JACKSON        CLEAR     28  25  86 CALM      29.86R
TRACY          CLOUDY    35  30  83 W5        29.86S WCI  31
SLAYTON        CLEAR     26  24  95 S5        29.87R WCI  20
$$
MNZ065>067-074>077-082>085-091>093-281100-
   South Central Minnesota

CITY           SKY/WX    TMP DP  RH WIND       PRES   REMARKS
MANKATO        CLEAR     31  28  89 SW7       29.86R WCI  24
NEW ULM        CLEAR     30  27  86 W5        29.85F WCI  25
ST JAMES       CLEAR     28  27  93 S3        29.88R
FAIRMONT       CLEAR     28  27  96 NW3       29.87R
GLENCOE        CLEAR     34  32  92 CALM      29.85R
FARIBAULT      CLEAR     30  28  93 S3        29.85S
OWATONNA       CLEAR     30  27  86 SW5       29.85S WCI  25
WASECA         CLEAR     30  28  93 CALM      29.87S
ALBERT LEA     CLEAR     30  27  86 CALM      29.86S
$$
MNZ078>079-086>088-094>096-281100-
   Southeast Minnesota

CITY           SKY/WX    TMP DP  RH WIND       PRES   REMARKS
ROCHESTER      CLEAR     30  27  88 SW7       29.85R WCI  23
RED WING       CLOUDY    36  27  69 CALM      29.84S
STANTON        CLOUDY    37  29  74 W7        29.84R
DODGE CENTER   CLEAR     28  27  93 SW7       29.85S WCI  21
WINONA         CLEAR     34  30  86 CALM      29.89R
AUSTIN         CLEAR     28  27  93 CALM      29.85F
PRESTON        CLEAR     28  24  86 W7        29.87R WCI  21
$$
ABBREVIATIONS USED IN REMARKS
   TC - TEMPERATURES IN CELSIUS
  WCI - WIND CHILL INDEX
   HX - HEAT INDEX
  VSB - VISIBILITY
$$




USA.gov is the U.S. government's official web portal to all federal, state and local government web resources and services.